KD5HIA Weather Reports


Display with metric or nautical units.
time (UTC)temp
F
wind
direction
speed
MPH
gust
MPH
rain 1hr
in
rain 24hr
in
rain mn
in
humidity
%
barometer
mb
20260509185017 85 225 6.0 11.0 0.00 0.00 0.00 51 1012.1
20260509184017 85 180 9.0 15.0 0.00 0.00 0.00 52 1012.2
20260509183017 85 270 5.0 12.0 0.00 0.00 0.00 56 1012.3
20260509182017 83 203 4.0 10.0 0.00 0.00 0.00 58 1012.5
20260509181017 84 158 8.0 16.0 0.00 0.00 0.00 56 1012.8
20260509180017 83 180 6.0 11.0 0.00 0.00 0.00 58 1013.0
20260509175017 82 225 4.0 8.0 0.00 0.00 0.00 60 1013.2
20260509174017 82 203 4.0 9.0 0.00 0.00 0.00 61 1013.3
20260509173018 80 248 4.0 7.0 0.00 0.00 0.00 63 1013.1
20260509172018 80 225 3.0 6.0 0.00 0.00 0.00 66 1013.3
20260509171017 78 203 4.0 7.0 0.00 0.00 0.00 70 1013.2
20260509170017 77 248 4.0 8.0 0.00 0.00 0.00 71 1013.3
20260509165017 77 248 3.0 7.0 0.00 0.00 0.00 71 1013.2
20260509164017 77 225 3.0 7.0 0.00 0.00 0.00 73 1013.3
20260509163017 76 180 5.0 9.0 0.00 0.00 0.00 73 1013.3
20260509162017 75 180 5.0 10.0 0.00 0.00 0.00 74 1013.4
20260509161017 73 248 3.0 7.0 0.00 0.00 0.00 77 1013.2
20260509160017 72 203 4.0 8.0 0.00 0.00 0.00 80 1013.1
20260509155017 71 180 4.0 8.0 0.00 0.00 0.00 81 1013.3
20260509154017 70 203 6.0 9.0 0.00 0.00 0.00 82 1013.3
20260509153017 70 180 4.0 9.0 0.00 0.00 0.00 83 1013.4
20260509152018 69 180 5.0 9.0 0.00 0.00 0.00 84 1013.5
20260509151017 69 203 3.0 7.0 0.00 0.00 0.00 84 1013.6
20260509150017 69 180 4.0 7.0 0.00 0.00 0.00 84 1014.0
20260509145017 68 248 2.0 6.0 0.00 0.00 0.00 85 1013.9
20260509144017 67 180 1.0 4.0 0.00 0.00 0.00 86 1013.8
20260509143017 67 0.0 2.0 0.00 0.00 0.00 87 1013.9
20260509142018 66 158 1.0 2.0 0.00 0.00 0.00 90 1013.9
20260509141018 65 0.0 2.0 0.00 0.00 0.00 90 1013.4
20260509140017 65 0.0 2.0 0.00 0.00 0.00 90 1013.4
20260509135017 65 0.0 0.0 0.00 0.00 0.00 91 1013.3
20260509134018 65 0.0 0.0 0.00 0.00 0.00 90 1013.4
20260509133017 64 0.0 0.0 0.00 0.00 0.00 92 1013.6
20260509132017 63 0.0 0.0 0.00 0.00 0.00 94 1013.3
20260509131017 63 0.0 0.0 0.00 0.00 0.00 94 1013.2
20260509130017 62 0.0 2.0 0.00 0.00 0.00 95 1013.3
20260509125017 62 0.0 1.0 0.00 0.00 0.00 95 1013.1
20260509124017 61 0.0 0.0 0.00 0.00 0.00 95 1012.9
20260509123018 61 0.0 0.0 0.00 0.00 0.00 95 1012.7
20260509122017 60 293 1.0 2.0 0.00 0.00 0.00 94 1012.4
20260509121018 59 293 1.0 3.0 0.00 0.00 0.00 94 1012.3
20260509120018 60 270 2.0 5.0 0.00 0.00 0.00 94 1012.2
20260509115018 59 203 3.0 5.0 0.00 0.00 0.00 93 1012.1
20260509114017 60 225 3.0 8.0 0.00 0.00 0.00 93 1012.1
20260509113017 60 248 3.0 6.0 0.00 0.00 0.00 94 1012.3
20260509112017 59 248 1.0 3.0 0.00 0.00 0.00 94 1012.2
20260509111018 59 203 3.0 6.0 0.00 0.00 0.00 94 1012.2
20260509110018 60 270 2.0 4.0 0.00 0.00 0.00 94 1012.3
20260509105018 60 225 2.0 3.0 0.00 0.00 0.00 94 1012.3
20260509104017 59 158 1.0 3.0 0.00 0.00 0.00 93 1012.5
20260509103017 59 0.0 0.0 0.00 0.00 0.00 93 1012.6
20260509102017 60 135 4.0 7.0 0.00 0.00 0.00 94 1012.4
20260509101021 59 90 2.0 4.0 0.00 0.00 0.00 93 1012.5
20260509100021 60 68 2.0 4.0 0.00 0.00 0.00 93 1012.6
20260509095021 60 68 3.0 4.0 0.00 0.00 0.00 93 1012.3
20260509094017 60 135 2.0 4.0 0.00 0.00 0.00 93 1012.3
20260509093018 60 68 1.0 4.0 0.00 0.00 0.00 92 1012.1
20260509092018 61 0.0 0.0 0.00 0.00 0.00 92 1012.1
20260509091017 61 0.0 0.0 0.00 0.00 0.00 92 1012.4
20260509090017 61 0.0 0.0 0.00 0.00 0.00 92 1012.1
20260509085017 61 225 1.0 3.0 0.00 0.00 0.00 92 1011.9
20260509084018 61 203 2.0 3.0 0.00 0.00 0.00 91 1012.0
20260509083017 62 0.0 2.0 0.00 0.00 0.00 91 1011.9
20260509082017 62 0.0 2.0 0.00 0.00 0.00 91 1012.0
20260509081017 62 135 1.0 3.0 0.00 0.00 0.00 92 1012.4
20260509080018 62 0.0 4.0 0.00 0.00 0.00 92 1012.5
20260509075018 62 0.0 0.0 0.00 0.00 0.00 91 1012.4
20260509074017 62 0.0 0.0 0.00 0.00 0.00 91 1012.5
20260509073018 62 0.0 0.0 0.00 0.00 0.00 92 1011.9
20260509072018 62 0.0 2.0 0.00 0.00 0.00 91 1011.7
20260509071018 62 225 1.0 3.0 0.00 0.00 0.00 91 1011.0
20260509070017 62 225 1.0 2.0 0.00 0.00 0.00 91 1011.0
20260509065017 63 0.0 2.0 0.00 0.00 0.00 91 1010.9
20260509064017 63 203 3.0 6.0 0.00 0.00 0.00 90 1011.0
20260509063018 63 203 4.0 7.0 0.00 0.00 0.00 90 1010.9
20260509062017 63 203 3.0 6.0 0.00 0.00 0.00 90 1010.9
20260509061017 63 203 3.0 5.0 0.00 0.00 0.00 89 1010.7
20260509060017 63 203 1.0 3.0 0.00 0.00 0.00 89 1010.8
20260509055017 64 225 1.0 2.0 0.00 0.00 0.00 89 1010.8
20260509054018 64 203 1.0 2.0 0.00 0.00 0.00 88 1010.7
20260509053018 65 0.0 0.0 0.00 0.00 0.00 87 1010.6
20260509052017 65 0.0 0.0 0.00 0.00 0.00 87 1010.7
20260509051018 65 158 1.0 1.0 0.00 0.00 0.00 88 1010.8
20260509050018 65 158 2.0 3.0 0.00 0.00 0.00 87 1010.9
20260509045018 65 158 3.0 4.0 0.00 0.00 0.00 86 1010.6
20260509044018 65 180 2.0 5.0 0.00 0.00 0.00 87 1010.7
20260509043017 65 0.0 1.0 0.00 0.00 0.00 85 1010.6
20260509042017 65 0.0 1.0 0.00 0.00 0.00 84 1010.4
20260509041017 67 0.0 2.0 0.00 0.00 0.00 81 1010.4
20260509040017 67 0.0 0.0 0.00 0.00 0.00 84 1010.5
20260509035018 67 0.0 0.0 0.00 0.00 0.00 84 1010.7
20260509034018 68 0.0 0.0 0.00 0.00 0.00 84 1010.7
20260509033017 68 0.0 0.0 0.00 0.00 0.00 83 1010.9
20260509032017 69 293 2.0 3.0 0.00 0.00 0.00 81 1011.0
20260509031018 70 270 2.0 2.0 0.00 0.00 0.00 80 1010.8
20260509030018 70 270 1.0 3.0 0.00 0.00 0.00 79 1010.6
20260509025017 70 248 2.0 3.0 0.00 0.00 0.00 78 1010.4
20260509024017 70 248 1.0 2.0 0.00 0.00 0.00 78 1010.3
20260509023017 71 270 2.0 2.0 0.00 0.00 0.00 76 1010.1
20260509022018 73 248 1.0 2.0 0.00 0.00 0.00 74 1010.0
20260509021017 73 248 1.0 2.0 0.00 0.00 0.00 74 1010.0
20260509020018 72 225 1.0 2.0 0.00 0.00 0.00 74 1009.8
20260509015018 73 0.0 2.0 0.00 0.00 0.00 73 1009.7
20260509014018 74 0.0 2.0 0.00 0.00 0.00 72 1009.6
20260509013018 74 0.0 1.0 0.00 0.00 0.00 71 1009.4
20260509012018 75 248 1.0 2.0 0.00 0.00 0.00 69 1009.4
20260509011018 76 225 1.0 3.0 0.00 0.00 0.00 68 1009.3
20260509010017 76 203 1.0 3.0 0.00 0.00 0.00 65 1009.3
20260509005017 77 248 1.0 3.0 0.00 0.00 0.00 64 1009.4
20260509004017 77 248 2.0 4.0 0.00 0.00 0.00 63 1009.4
20260509003018 77 203 2.0 4.0 0.00 0.00 0.00 63 1009.3
20260509002017 78 270 2.0 4.0 0.00 0.00 0.00 63 1009.4
20260509001018 78 270 2.0 4.0 0.00 0.00 0.00 63 1009.4
20260509000018 78 135 2.0 3.0 0.00 0.00 0.00 63 1009.3
20260508235018 78 203 3.0 6.0 0.00 0.00 0.00 62 1009.4
20260508234018 80 270 2.0 6.0 0.00 0.00 0.00 58 1009.5
20260508233018 79 158 2.0 3.0 0.00 0.00 0.00 61 1009.4
20260508232018 80 225 2.0 5.0 0.00 0.00 0.00 61 1009.4
20260508231018 80 225 3.0 6.0 0.00 0.00 0.00 60 1009.4
20260508230018 79 203 2.0 6.0 0.00 0.00 0.00 62 1009.3
20260508224017 79 158 3.0 7.0 0.00 0.00 0.00 60 1009.2
20260508223018 79 180 5.0 9.0 0.00 0.00 0.00 62 1009.4
20260508222017 79 180 5.0 10.0 0.00 0.00 0.00 61 1009.3
20260508221018 79 225 4.0 9.0 0.00 0.00 0.00 61 1009.4
20260508220017 79 158 4.0 10.0 0.00 0.01 0.00 63 1009.6
20260508215018 79 203 5.0 10.0 0.00 0.01 0.00 62 1009.8
20260508214022 79 203 4.0 10.0 0.00 0.01 0.00 64 1009.8
20260508213021 78 225 5.0 10.0 0.00 0.01 0.00 64 1009.8
20260508212021 78 203 4.0 9.0 0.00 0.01 0.00 67 1009.8
20260508211018 77 203 3.0 7.0 0.00 0.01 0.00 67 1010.2
20260508210017 76 203 5.0 11.0 0.00 0.01 0.00 67 1010.2
20260508205018 76 203 6.0 10.0 0.00 0.01 0.00 68 1010.4
20260508204018 76 203 6.0 13.0 0.00 0.01 0.00 68 1010.4
20260508203018 75 203 4.0 9.0 0.00 0.01 0.00 70 1010.7
20260508202018 75 248 5.0 9.0 0.00 0.01 0.00 70 1010.9
20260508201018 74 203 5.0 9.0 0.00 0.01 0.00 73 1011.0
20260508200018 73 270 3.0 8.0 0.00 0.01 0.00 74 1011.2
20260508195018 73 270 3.0 7.0 0.00 0.01 0.00 75 1011.4
20260508194018 72 248 3.0 6.0 0.00 0.01 0.00 74 1011.5
20260508193018 72 270 4.0 8.0 0.00 0.01 0.00 75 1011.4
20260508192018 73 225 2.0 4.0 0.00 0.01 0.00 74 1011.6
20260508191018 72 270 2.0 4.0 0.00 0.01 0.00 75 1011.7
20260508190017 71 270 1.0 7.0 0.00 0.01 0.00 77 1011.8